Weather History for Keahole Point, HI

Change the Weather History Date:

Sunday, November 18, 2012

  Actual Average Record
Temperature  
Mean Temperature 78 °F -  
Max Temperature 82 °F 81 °F 89 °F (1986)
Min Temperature 73 °F 70 °F 68 °F (1983)
Cooling Degree Days 12    
Growing Degree Days 28 (Base 50)    
Moisture  
Dew Point 63 °F    
Average Humidity 61    
Maximum Humidity 66    
Minimum Humidity 55    
Precipitation  
Precipitation 0.00 in - - ()
Sea Level Pressure  
Sea Level Pressure 30.03 in    
Wind  
Wind Speed 5 mph (South)    
Max Wind Speed 15 mph    
Max Gust Speed -    
Visibility 10 miles    
Events      
Averages and records for this station are not official NWS values.
T = Trace of Precipitation, MM = Missing Value Source: NWS Daily Summary

Daily Weather History Graph

Daily Weather History Graph

Search for Another Location

Airport:

Trip Planner

Search our weather history database for the weather conditions in past years. The results will help you decide how hot, cold, wet, or windy it might be!

Date:

Astronomy

Nov. 18, 2012 Rise Set
Actual Time 6:34 AM HST 5:44 PM HST
Civil Twilight 6:11 AM HST 6:07 PM HST
Nautical Twilight 5:44 AM HST 6:34 PM HST
Astronomical Twilight 5:18 AM HST 7:00 PM HST
Moon 11:18 AM HST (11/18) 11:02 PM HST (11/18)
Length of Visible Light 11h 55m
Length of Day
11h 09m
Waxing Crescent, 32% of the Moon is Illuminated
Nov 18
Waxing Crescent
Nov 20
First Quarter
Nov 28
Full
Dec 6
Last Quarter
Dec 12
New

Hourly Weather History & Observations

Time (HST) Temp. Heat Index Dew Point Humidity Pressure Visibility Wind Dir Wind Speed Gust Speed Precip Events Conditions
12:53 AM 75.0 °F - 57.9 °F 55% 30.05 in 10.0 mi Calm Calm - N/A   Clear
1:53 AM 75.0 °F - 59.0 °F 57% 30.03 in 10.0 mi East 5.8 mph - N/A   Clear
2:53 AM 73.0 °F - 60.1 °F 64% 30.01 in 10.0 mi ENE 3.5 mph - N/A   Clear
3:53 AM 73.0 °F - 60.1 °F 64% 30.01 in 10.0 mi ENE 3.5 mph - N/A   Clear
4:53 AM 73.0 °F - 59.0 °F 61% 30.01 in 10.0 mi Calm Calm - N/A   Clear
5:53 AM 73.0 °F - 61.0 °F 66% 30.00 in 10.0 mi NE 6.9 mph - N/A   Clear
6:53 AM 73.0 °F - 61.0 °F 66% 30.01 in 10.0 mi SE 3.5 mph - N/A   Clear
7:53 AM 77.0 °F - 61.0 °F 58% 30.05 in 10.0 mi East 6.9 mph - N/A   Clear
8:53 AM 79.0 °F - 64.9 °F 62% 30.05 in 10.0 mi South 5.8 mph - N/A   Clear
9:53 AM 81.0 °F 82.7 °F 64.9 °F 58% 30.08 in 10.0 mi SSW 8.1 mph - N/A   Clear
10:53 AM 80.1 °F 82.1 °F 66.0 °F 62% 30.06 in 10.0 mi South 11.5 mph - N/A   Overcast
11:53 AM 82.0 °F 84.1 °F 66.0 °F 58% 30.04 in 10.0 mi South 15.0 mph - N/A   Partly Cloudy
12:53 PM 82.0 °F 84.1 °F 66.0 °F 58% 30.01 in 10.0 mi South 13.8 mph - N/A   Clear
1:53 PM 81.0 °F 82.5 °F 64.0 °F 56% 30.01 in 10.0 mi SSW 13.8 mph - N/A   Mostly Cloudy
2:53 PM 80.1 °F 82.1 °F 66.0 °F 62% 30.01 in 10.0 mi SW 10.4 mph - N/A   Mostly Cloudy
3:53 PM 80.1 °F 81.9 °F 64.9 °F 60% 30.01 in 10.0 mi WSW 6.9 mph - N/A   Scattered Clouds
4:53 PM 79.0 °F - 64.9 °F 62% 30.01 in 10.0 mi SW 5.8 mph - N/A   Clear
5:53 PM 79.0 °F - 64.9 °F 62% 30.02 in 10.0 mi WSW 5.8 mph - N/A   Clear
6:53 PM 79.0 °F - 64.9 °F 62% 30.04 in 10.0 mi SW 4.6 mph - N/A   Clear
7:53 PM 78.1 °F - 64.9 °F 64% 30.04 in 10.0 mi Calm Calm - N/A   Clear
8:53 PM 78.1 °F - 64.9 °F 64% 30.06 in 10.0 mi Calm Calm - N/A   Clear
9:53 PM 77.0 °F - 64.0 °F 64% 30.05 in 10.0 mi Calm Calm - N/A   Clear
10:53 PM 77.0 °F - 63.0 °F 62% 30.04 in 10.0 mi ENE 3.5 mph - N/A   Clear
11:53 PM 77.0 °F - 63.0 °F 62% 30.02 in 10.0 mi Calm Calm - N/A   Clear